User: anonymous   Login
Location: Unspecified
(0.0000°N, 0.0000°E)
Time: 09:23:54
(UTC+00:00)
Language:

AO-85 - Orbit

View from above orbital plane
View from above orbital plane
View from above satellite
View from above satellite

Ground track
Ground track

The orbit data is extracted from the following two-line orbital elements,

1 40967U 15058D   19276.44304442  .00000058  00000 0  25315-4 0  8244
2 40967  64.7786 194.2136 0187215 167.9962 192.5700 14.75996957123491
Epoch (UTC): 03 October 2019 10:37:59
Eccentricity: 0.0187215
inclination: 64.7786°
perigee height: 510 km
apogee height: 773 km
right ascension of ascending node: 194.2136°
argument of perigee: 167.9962°
revolutions per day: 14.75996957
mean anomaly at epoch: 192.5700°
orbit number at epoch: 12349

The dashed part of the orbit path shows where the satellite is in the earth's shadow,  

DLR